This demonstration page uses our WeatherBlox Daily Observations layout. Learn more.

Left ArrowRight Arrow

39.92423, -83.80882

Hourly Observations for June 21, 2015

Temp ( °F °C ) Dew Point ( °F °C ) Humidity (%) Winds ( mph kmh ) Pressure ( in mb ) Visibility ( mi km ) Precip ( " mm )
1:56 am 01:56 Clear with Mist and Fog 71 21.6 70 21.1 97 97 WSW 9 15 29.89 1012 6 9.65604 0 0
2:56 am 02:56 Partly Cloudy with Mist and Fog 71 21.6 70 21.1 97 97 W 7 11 29.91 1013 6 9.65604 0 0
3:48 am 03:48 Mostly Cloudy with Mist and Fog 72 22 70 21 94 94 WSW 9 15 29.91 1013 6 9.65604 0 0
3:56 am 03:56 Partly Cloudy with Mist and Fog 71 21.6 70 21.1 97 97 WSW 8 13 29.92 1013 6 9.65604 0 0
4:56 am 04:56 Mostly Clear with Mist and Fog 70 21.1 70 21.1 100 100 WSW 10 17 29.92 1013 5 8.0467 0 0
5:56 am 05:56 Clear with Mist and Fog 70 21.1 70 21.1 100 100 SSW 5 7 29.84 1011 6 9.65604 0 0
6:56 am 06:56 Sunny with Mist and Fog 70 21.1 70 21.1 100 100 SW 9 15 29.85 1011 5 8.0467 0 0
7:56 am 07:56 Sunny with Mist and Fog 71 21.6 71 21.6 100 100 SW 15 24 29.88 1012 5 8.0467 0 0
8:12 am 08:12 Partly Cloudy with Mist and Fog 72 22 72 22 100 100 W 12 19 29.91 1013 5 8.0467 0 0
8:41 am 08:41 Mostly Cloudy with Mist and Fog 72 22 72 22 100 100 NW 5 7 29.91 1013 5 8.0467 0 0
8:56 am 08:56 Mostly Cloudy with Mist and Fog 73 22.7 71 21.6 94 94 NW 5 7 29.92 1013 6 9.65604 0 0
9:41 am 09:41 Partly Cloudy 75 24 70 21 83 83 SW 9 15 29.91 1013 7 11.26538 0 0
9:56 am 09:56 Sunny 76 24.4 71 21.6 84 84 W 5 7 29.92 1013 7 11.26538 0 0
10:56 am 10:56 Sunny 77 25 69 20.5 76 76 W 10 17 29.94 1014 8 12.87472 0 0
11:56 am 11:56 Sunny 80 26.6 70 21.1 72 72 WSW 9 15 29.94 1014 8 12.87472 0 0
12:56 pm 12:56 Sunny 82 27.7 70 21.1 67 67 WSW 10 17 29.94 1014 9 14.48406 0 0
1:56 pm 13:56 Sunny 84 28.8 70 21.1 63 63 W 14 22 29.94 1014 9 14.48406 0 0
2:56 pm 14:56 Mostly Cloudy 82 27.7 69 20.5 65 65 W 10 17 29.94 1014 9 14.48406 0 0
3:56 pm 15:56 Sunny 84 28.8 69 20.5 61 61 W 14 22 29.95 1014 10 16.0934 0 0
4:56 pm 16:56 Mostly Sunny 85 29.4 69 20.5 59 59 WNW 17 28 29.95 1014 9 14.48406 0 0
5:56 pm 17:56 Partly Cloudy 84 28.8 69 20.5 61 61 W 13 20 29.95 1014 9 14.48406 0 0
6:56 pm 18:56 Mostly Sunny 82 27.7 67 19.4 61 61 W 10 17 29.96 1015 8 12.87472 0 0
7:56 pm 19:56 Sunny 80 26.6 69 20.5 69 69 W 7 11 29.98 1015 8 12.87472 0 0
8:56 pm 20:56 Sunny 76 24.4 68 20 77 77 W 5 7 30 1016 8 12.87472 0 0
9:56 pm 21:56 Clear 73 22.7 69 20.5 87 87 SW 3 6 30 1016 9 14.48406 0 0
10:56 pm 22:56 Clear 71 21.6 69 20.5 93 93 Calm 30.01 1016 9 14.48406 0 0
11:56 pm 23:56 Clear 71 21.6 69 20.5 93 93 SW 7 11 30.04 1017 9 14.48406 0 0

Powered by AerisWeather